SKW4045 KSLC-KPSP

Flight info

Callsign SKW4045
Flight time N/A
Altitude 32000
Route WINEN LAKRR Q73 HAKMN ZELMA RDBUL1
Aircraft E75L/M-SDE3GILORVW/S

Departure

Time N/A
Airport Salt Lake City International Airport (KSLC)

Arrival

Time 2026-05-06 02:57
Airport Palm Springs International Airport (KPSP)
Time Latitude Longitude Altitude Speed Heading
2026-05-06 02:03 39.14504 -112.87263 35803 ft 497 kts 202°
2026-05-06 02:03 39.11262 -112.88957 35804 ft 497 kts 202°
2026-05-06 02:03 39.04849 -112.92318 35805 ft 497 kts 202°
2026-05-06 02:04 38.98447 -112.95668 35791 ft 496 kts 202°
2026-05-06 02:04 38.92104 -112.98984 35768 ft 496 kts 202°
2026-05-06 02:05 38.88905 -113.00653 34882 ft 497 kts 202°
2026-05-06 02:05 38.85678 -113.02335 33641 ft 505 kts 202°
2026-05-06 02:05 38.82397 -113.04043 32445 ft 510 kts 202°
2026-05-06 02:05 38.79148 -113.05731 32102 ft 495 kts 202°
2026-05-06 02:06 38.72712 -113.09072 31952 ft 507 kts 201°
2026-05-06 02:06 38.69425 -113.10775 31782 ft 512 kts 201°
2026-05-06 02:06 38.66123 -113.12489 31809 ft 515 kts 201°
2026-05-06 02:07 38.59482 -113.15932 31828 ft 515 kts 201°
2026-05-06 02:07 38.52854 -113.19389 31850 ft 516 kts 201°
2026-05-06 02:08 38.46196 -113.22825 31848 ft 515 kts 201°
2026-05-06 02:08 38.39542 -113.26246 31844 ft 515 kts 201°
2026-05-06 02:09 38.32885 -113.29660 31829 ft 516 kts 201°
2026-05-06 02:09 38.26273 -113.33046 31808 ft 515 kts 201°
2026-05-06 02:10 38.19579 -113.36465 31785 ft 515 kts 201°
2026-05-06 02:10 38.12968 -113.39824 31785 ft 516 kts 201°
2026-05-06 02:11 38.06317 -113.43217 31780 ft 515 kts 201°
2026-05-06 02:11 37.99642 -113.46615 31786 ft 517 kts 200°
2026-05-06 02:12 37.92971 -113.50028 31794 ft 517 kts 202°
2026-05-06 02:12 37.86474 -113.53978 31795 ft 518 kts 205°
2026-05-06 02:13 37.80028 -113.58036 31799 ft 518 kts 205°
2026-05-06 02:13 37.73563 -113.62051 31803 ft 517 kts 204°
2026-05-06 02:14 37.67105 -113.66042 31805 ft 517 kts 204°
2026-05-06 02:14 37.60637 -113.70030 31812 ft 517 kts 204°
2026-05-06 02:15 37.54175 -113.74006 31818 ft 518 kts 204°
2026-05-06 02:15 37.47685 -113.77992 31812 ft 520 kts 204°
2026-05-06 02:16 37.41177 -113.81981 31814 ft 520 kts 204°
2026-05-06 02:16 37.34676 -113.85948 31805 ft 519 kts 204°
2026-05-06 02:17 37.28792 -113.89549 31794 ft 519 kts 203°
2026-05-06 02:17 37.22238 -113.93316 31800 ft 520 kts 204°
2026-05-06 02:18 37.15795 -113.97425 31794 ft 519 kts 204°
2026-05-06 02:18 37.09320 -114.01414 31784 ft 519 kts 203°
2026-05-06 02:19 37.02824 -114.05370 31786 ft 516 kts 203°
2026-05-06 02:19 36.96402 -114.09268 31783 ft 519 kts 202°
2026-05-06 02:20 36.86642 -114.15172 31774 ft 520 kts 202°
2026-05-06 02:21 36.80136 -114.19103 31779 ft 520 kts 202°
2026-05-06 02:21 36.73664 -114.23004 31776 ft 515 kts 202°
2026-05-06 02:22 36.67204 -114.26889 31781 ft 516 kts 202°
2026-05-06 02:22 36.60729 -114.30776 31780 ft 516 kts 202°
2026-05-06 02:23 36.54275 -114.34645 31768 ft 516 kts 202°
2026-05-06 02:23 36.47835 -114.38497 31774 ft 511 kts 202°
2026-05-06 02:24 36.41410 -114.42333 31764 ft 513 kts 202°
2026-05-06 02:24 36.34973 -114.46170 31769 ft 513 kts 202°
2026-05-06 02:25 36.28573 -114.49980 31777 ft 513 kts 202°
2026-05-06 02:25 36.22180 -114.53778 31771 ft 507 kts 203°
2026-05-06 02:26 36.15815 -114.57551 31793 ft 507 kts 203°
2026-05-06 02:26 36.09434 -114.61327 31808 ft 509 kts 202°
2026-05-06 02:27 36.03052 -114.65094 31822 ft 508 kts 203°
2026-05-06 02:27 35.96710 -114.68835 31858 ft 503 kts 203°
2026-05-06 02:28 35.90385 -114.72556 31869 ft 504 kts 203°
2026-05-06 02:28 35.84062 -114.76268 31809 ft 503 kts 203°
2026-05-06 02:29 35.77741 -114.79975 31875 ft 503 kts 203°
2026-05-06 02:29 35.71416 -114.83677 31878 ft 503 kts 203°
2026-05-06 02:30 35.65282 -114.87825 31874 ft 507 kts 219°
2026-05-06 02:30 35.62821 -114.90942 31889 ft 509 kts 230°
2026-05-06 02:30 35.60572 -114.94294 31893 ft 509 kts 230°
2026-05-06 02:31 35.55958 -115.00896 31879 ft 509 kts 228°
2026-05-06 02:31 35.51145 -115.07302 31893 ft 511 kts 219°
2026-05-06 02:31 35.48168 -115.09603 31884 ft 505 kts 199°
2026-05-06 02:32 35.44815 -115.10761 31915 ft 497 kts 188°
2026-05-06 02:32 35.38084 -115.12541 31902 ft 496 kts 191°
2026-05-06 02:33 35.31407 -115.14740 31911 ft 497 kts 193°
2026-05-06 02:33 35.29206 -115.15495 31913 ft 497 kts 193°
2026-05-06 02:34 35.18130 -115.19332 31901 ft 490 kts 194°
2026-05-06 02:34 35.11571 -115.21605 31900 ft 491 kts 194°
2026-05-06 02:35 35.04999 -115.23879 31893 ft 491 kts 194°
2026-05-06 02:35 34.98423 -115.26150 31892 ft 491 kts 194°
2026-05-06 02:36 34.91931 -115.28388 31506 ft 473 kts 194°
2026-05-06 02:36 34.88825 -115.29459 31175 ft 457 kts 194°
2026-05-06 02:36 34.85782 -115.30507 30460 ft 453 kts 193°
2026-05-06 02:36 34.82769 -115.31543 29809 ft 447 kts 193°
2026-05-06 02:37 34.79800 -115.32561 29264 ft 438 kts 193°
2026-05-06 02:37 34.76907 -115.33665 28652 ft 433 kts 196°
2026-05-06 02:37 34.74057 -115.34886 28095 ft 439 kts 197°
2026-05-06 02:37 34.71165 -115.36163 27502 ft 443 kts 198°
2026-05-06 02:38 34.68279 -115.37438 26887 ft 438 kts 199°
2026-05-06 02:38 34.65452 -115.38685 26331 ft 429 kts 199°
2026-05-06 02:38 34.62661 -115.39910 25753 ft 423 kts 198°
2026-05-06 02:38 34.59911 -115.41111 25199 ft 417 kts 198°
2026-05-06 02:39 34.57200 -115.42292 24652 ft 412 kts 198°
2026-05-06 02:39 34.54512 -115.43461 24102 ft 408 kts 199°
2026-05-06 02:39 34.51861 -115.44612 23562 ft 404 kts 199°
2026-05-06 02:39 34.49226 -115.45755 22991 ft 399 kts 199°
2026-05-06 02:40 34.46632 -115.46881 22499 ft 395 kts 199°
2026-05-06 02:40 34.44054 -115.47998 21980 ft 390 kts 199°
2026-05-06 02:40 34.41515 -115.49098 21460 ft 385 kts 199°
2026-05-06 02:40 34.39007 -115.50184 20954 ft 381 kts 199°
2026-05-06 02:41 34.36515 -115.51262 20454 ft 379 kts 199°
2026-05-06 02:41 34.34046 -115.52333 19954 ft 376 kts 201°
2026-05-06 02:41 34.31779 -115.53876 19418 ft 373 kts 219°
2026-05-06 02:41 34.29839 -115.55932 18984 ft 370 kts 224°
2026-05-06 02:42 34.27975 -115.58079 18461 ft 368 kts 225°
2026-05-06 02:42 34.26132 -115.60203 17954 ft 365 kts 224°
2026-05-06 02:42 34.24298 -115.62292 17507 ft 360 kts 224°
2026-05-06 02:42 34.22473 -115.64357 17030 ft 359 kts 224°
2026-05-06 02:43 34.20675 -115.66383 16674 ft 356 kts 224°
2026-05-06 02:43 34.18860 -115.68429 16164 ft 358 kts 224°
2026-05-06 02:43 34.17042 -115.70474 15710 ft 356 kts 224°
2026-05-06 02:43 34.15236 -115.72504 15228 ft 353 kts 224°
2026-05-06 02:44 34.13447 -115.74512 14768 ft 350 kts 224°
2026-05-06 02:44 34.11662 -115.76513 14309 ft 350 kts 223°
2026-05-06 02:44 34.09757 -115.78328 13844 ft 348 kts 216°
2026-05-06 02:44 34.07748 -115.79947 13371 ft 347 kts 214°
2026-05-06 02:45 34.05732 -115.81529 12933 ft 344 kts 214°
2026-05-06 02:45 34.03738 -115.83115 12480 ft 343 kts 214°
2026-05-06 02:45 34.01760 -115.84703 12019 ft 340 kts 215°
2026-05-06 02:45 33.99809 -115.86276 11566 ft 335 kts 215°
2026-05-06 02:46 33.97869 -115.87848 11116 ft 328 kts 215°
2026-05-06 02:46 33.95988 -115.89366 10676 ft 322 kts 215°
2026-05-06 02:46 33.94173 -115.90834 10288 ft 316 kts 215°
2026-05-06 02:46 33.92359 -115.92304 9847 ft 312 kts 215°
2026-05-06 02:47 33.90568 -115.93753 9438 ft 307 kts 215°
2026-05-06 02:47 33.88815 -115.95169 9141 ft 299 kts 215°
2026-05-06 02:47 33.87327 -115.96842 8856 ft 290 kts 234°
2026-05-06 02:47 33.86238 -115.98827 8648 ft 279 kts 242°
2026-05-06 02:48 33.85285 -116.00818 8508 ft 270 kts 242°
2026-05-06 02:48 33.84338 -116.02752 8406 ft 268 kts 242°
2026-05-06 02:48 33.83367 -116.04681 8222 ft 272 kts 240°
2026-05-06 02:48 33.82692 -116.06002 8049 ft 275 kts 241°
2026-05-06 02:49 33.81689 -116.07939 7811 ft 269 kts 237°
2026-05-06 02:49 33.80334 -116.09500 7329 ft 274 kts 207°
2026-05-06 02:49 33.77995 -116.10513 6946 ft 270 kts 197°
2026-05-06 02:49 33.76795 -116.10923 6940 ft 261 kts 196°
2026-05-06 02:50 33.75095 -116.11527 6928 ft 258 kts 201°
2026-05-06 02:50 33.73581 -116.12694 6898 ft 264 kts 231°
2026-05-06 02:50 33.72800 -116.14635 6901 ft 257 kts 265°
2026-05-06 02:50 33.72797 -116.16792 6701 ft 259 kts 275°
2026-05-06 02:51 33.72961 -116.18920 6493 ft 252 kts 277°
2026-05-06 02:51 33.73116 -116.20962 6205 ft 240 kts 277°
2026-05-06 02:51 33.73243 -116.22911 5914 ft 228 kts 277°
2026-05-06 02:51 33.73357 -116.24767 5666 ft 217 kts 276°
2026-05-06 02:52 33.73461 -116.26536 5458 ft 208 kts 275°
2026-05-06 02:52 33.73558 -116.28227 5217 ft 198 kts 275°
2026-05-06 02:52 33.73646 -116.29830 4972 ft 188 kts 275°
2026-05-06 02:52 33.73730 -116.31367 4701 ft 181 kts 275°
2026-05-06 02:53 33.73813 -116.32855 4444 ft 180 kts 276°
2026-05-06 02:53 33.73905 -116.34376 4245 ft 185 kts 276°
2026-05-06 02:53 33.73990 -116.35928 3986 ft 187 kts 276°
2026-05-06 02:53 33.74081 -116.37492 3744 ft 188 kts 276°
2026-05-06 02:54 33.74166 -116.39033 3486 ft 179 kts 276°
2026-05-06 02:54 33.74397 -116.40448 3187 ft 168 kts 294°
2026-05-06 02:54 33.74980 -116.41614 2872 ft 159 kts 300°
2026-05-06 02:54 33.75581 -116.42676 2548 ft 148 kts 303°
2026-05-06 02:55 33.76156 -116.43649 2234 ft 135 kts 302°
2026-05-06 02:55 33.76693 -116.44496 1971 ft 120 kts 306°
2026-05-06 02:55 33.77203 -116.45224 1775 ft 113 kts 311°
2026-05-06 02:55 33.77747 -116.45926 1568 ft 119 kts 313°
2026-05-06 02:56 33.78335 -116.46615 1434 ft 117 kts 319°
2026-05-06 02:56 33.78985 -116.47250 1220 ft 124 kts 325°
2026-05-06 02:56 33.79680 -116.47853 1077 ft 124 kts 324°
2026-05-06 02:56 33.80377 -116.48474 928 ft 125 kts 326°
2026-05-06 02:57 33.81077 -116.49098 720 ft 124 kts 324°
2026-05-06 02:57 33.81741 -116.49685 539 ft 116 kts 322°
2026-05-06 02:57 33.82382 -116.50247 425 ft 105 kts 323°
2026-05-06 02:57 33.82835 -116.50646 426 ft 47 kts 322°
2026-05-06 02:58 33.82883 -116.50811 433 ft 18 kts 253°
2026-05-06 02:58 33.82876 -116.50835 433 ft 0 kts 228°
2026-05-06 02:58 33.82874 -116.50836 433 ft 0 kts 218°